Weather History for Cuernavaca, Mexico

Change the Weather History Date:

Tuesday, February 12, 2013

  Actual Average Record
Temperature  
Mean Temperature 66 °F -  
Max Temperature 80 °F 85 °F 89 °F (2005)
Min Temperature 46 °F 60 °F 46 °F (2013)
Cooling Degree Days 1    
Growing Degree Days 16 (Base 50)    
Moisture  
Dew Point 34 °F    
Average Humidity 23    
Maximum Humidity 51    
Minimum Humidity 7    
Precipitation  
Precipitation 0.00 in - - ()
Sea Level Pressure  
Sea Level Pressure 30.06 in    
Wind  
Wind Speed 2 mph ()    
Max Wind Speed 9 mph    
Max Gust Speed -    
Visibility 10.5 miles    
Events      
Averages and records for this station are not official NWS values.
T = Trace of Precipitation, MM = Missing Value Source: Averaged Metar Reports

Daily Weather History Graph

Daily Weather History Graph

Search for Another Location

Airport:

Trip Planner

Search our weather history database for the weather conditions in past years. The results will help you decide how hot, cold, wet, or windy it might be!

Date:

Astronomy

Feb. 12, 2013 Rise Set
Actual Time 7:06 AM CST 6:36 PM CST
Civil Twilight 6:44 AM CST 6:58 PM CST
Nautical Twilight 6:18 AM CST 7:24 PM CST
Astronomical Twilight 5:52 AM CST 7:50 PM CST
Moon 8:34 AM CST (2/12) 9:04 PM CST (2/12)
Length of Visible Light 12h 14m
Length of Day
11h 29m
Waxing Crescent, 7% of the Moon is Illuminated
Feb 12
Waxing Crescent
Feb 17
First Quarter
Feb 25
Full
Mar 4
Last Quarter
Mar 11
New

Hourly Weather History & Observations

Time (CST) Temp. Dew Point Humidity Pressure Visibility Wind Dir Wind Speed Gust Speed Precip Events Conditions
2:45 AM 55 °F 23 °F 17% 30.05 in 11 mi North 2.2 mph - -  
5:45 AM 48 °F 22 °F 23% 30.10 in 11 mi North 2.2 mph - -  
6:56 AM 59.0 °F 39.2 °F 48% 30.16 in 10.0 mi Calm Calm - N/A   Clear
7:45 AM 62.6 °F 41.0 °F 45% 30.18 in 10.0 mi Calm Calm - N/A   Clear
8:14 AM 68.0 °F 39.2 °F 35% 30.19 in 10.0 mi Calm Calm - N/A   Clear
8:44 AM 69.8 °F 37.4 °F 31% 30.19 in 10.0 mi Calm Calm - N/A   Clear
8:50 AM 68 °F 54 °F 51% 29.88 in 12 mi Calm Calm - -  
9:44 AM 71.6 °F 32.0 °F 23% 30.20 in 10.0 mi Calm Calm - N/A   Clear
10:45 AM 71.6 °F 37.4 °F 29% 30.19 in 10.0 mi Calm Calm - N/A   Clear
11:58 AM 78 °F 43 °F 18% 29.95 in 12 mi SSW 2.2 mph - -  
11:58 AM 78.8 °F 37.4 °F 23% 30.16 in 10.0 mi Calm Calm - N/A   Clear
12:43 PM 80.6 °F 37.4 °F 21% 30.13 in 10.0 mi Calm Calm - N/A   Clear
1:51 PM 84.2 °F 30.2 °F 14% 30.07 in 10.0 mi SSE 6.9 mph - N/A   Clear
2:40 PM 78 °F 39 °F 15% 29.85 in 12 mi South 4.5 mph - -  
2:44 PM 86.0 °F 24.8 °F 11% 30.04 in 10.0 mi SSE 6.9 mph - N/A   Clear
3:40 PM 86.0 °F 23.0 °F 10% 30.01 in 10.0 mi SW 6.9 mph - N/A   Clear
4:58 PM 86.0 °F 28.4 °F 12% 29.99 in 10.0 mi SE 9.2 mph - N/A   Clear
5:40 PM 86.0 °F 28.4 °F 12% 29.99 in 10.0 mi SSW 8.1 mph - N/A   Clear
5:45 PM 79 °F 27 °F 7% 29.72 in 12 mi SSW 2.2 mph - -